| time (UTC) | temp F | wind direction | speed MPH | gust MPH | rain 1hr in | rain 24hr in | rain mn in | humidity % | barometer mb |
| 20260510011412 | 70 | 103 | 4.0 | 7.0 | 0.00 | 0.00 | 0.00 | 62 | 1031.7 |
| 20260510010222 | 71 | 114 | 3.0 | 8.0 | 0.00 | 0.00 | 0.00 | 60 | 1031.9 |
| 20260510004929 | 73 | 162 | 1.0 | 1.0 | 0.00 | 0.00 | 0.00 | 51 | 1031.9 |
| 20260510003739 | 71 | 137 | 2.0 | 4.0 | 0.00 | 0.00 | 0.00 | 55 | 1031.8 |
| 20260510002654 | 70 | 234 | 1.0 | 2.0 | 0.00 | 0.00 | 0.00 | 56 | 1031.9 |
| 20260510001400 | 70 | 282 | 2.0 | 4.0 | 0.00 | 0.00 | 0.00 | 59 | 1031.8 |
| 20260510000211 | 69 | 288 | 2.0 | 4.0 | 0.00 | 0.00 | 0.00 | 59 | 1031.7 |
| 20260509234957 | 70 | 247 | 1.0 | 2.0 | 0.00 | 0.00 | 0.00 | 58 | 1031.6 |
| 20260509233727 | 68 | 292 | 1.0 | 2.0 | 0.00 | 0.00 | 0.00 | 60 | 1031.7 |
| 20260509232642 | 66 | 241 | 1.0 | 1.0 | 0.00 | 0.00 | 0.00 | 68 | 1031.7 |
| 20260509231448 | 65 | 244 | 0.0 | 1.0 | 0.00 | 0.00 | 0.00 | 73 | 1031.7 |
| 20260509230158 | 63 | 247 | 1.0 | 2.0 | 0.00 | 0.00 | 0.00 | 78 | 1031.7 |
| 20260509225009 | 62 | 230 | 0.0 | 3.0 | 0.00 | 0.00 | 0.00 | 81 | 1031.7 |
| 20260509223715 | 59 | 0.0 | 1.0 | 0.00 | 0.00 | 0.00 | 86 | 1031.7 | |
| 20260509222628 | 58 | 177 | 1.0 | 1.0 | 0.00 | 0.00 | 0.00 | 88 | 1031.6 |
| 20260509221438 | 56 | 0.0 | 0.0 | 0.00 | 0.00 | 0.00 | 89 | 1031.5 | |
| 20260509220143 | 56 | 0.0 | 0.0 | 0.00 | 0.00 | 0.00 | 91 | 1031.4 | |
| 20260509214953 | 53 | 0.0 | 0.0 | 0.00 | 0.00 | 0.00 | 93 | 1031.3 | |
| 20260509213804 | 51 | 162 | 1.0 | 1.0 | 0.00 | 0.00 | 0.00 | 94 | 1031.2 |
| 20260509212614 | 50 | 161 | 0.0 | 1.0 | 0.00 | 0.00 | 0.00 | 95 | 1031.1 |
| 20260509211424 | 48 | 162 | 1.0 | 1.0 | 0.00 | 0.00 | 0.00 | 95 | 1030.8 |
| 20260509210211 | 48 | 144 | 1.0 | 2.0 | 0.00 | 0.00 | 0.00 | 95 | 1030.7 |
| 20260509204942 | 47 | 161 | 1.0 | 1.0 | 0.00 | 0.00 | 0.00 | 95 | 1030.6 |
| 20260509203752 | 47 | 162 | 0.0 | 1.0 | 0.00 | 0.00 | 0.00 | 95 | 1030.4 |
| 20260509202603 | 48 | 163 | 0.0 | 1.0 | 0.00 | 0.00 | 0.00 | 95 | 1030.3 |
| 20260509201452 | 47 | 164 | 1.0 | 1.0 | 0.00 | 0.00 | 0.00 | 95 | 1030.0 |
| 20260509200222 | 47 | 164 | 0.0 | 1.0 | 0.00 | 0.00 | 0.00 | 94 | 1029.9 |
| 20260509195008 | 47 | 0.0 | 0.0 | 0.00 | 0.00 | 0.00 | 94 | 1029.9 | |
| 20260509193738 | 48 | 0.0 | 0.0 | 0.00 | 0.00 | 0.00 | 94 | 1029.7 | |
| 20260509192652 | 48 | 157 | 1.0 | 2.0 | 0.00 | 0.00 | 0.00 | 94 | 1029.5 |
| 20260509191459 | 48 | 132 | 2.0 | 2.0 | 0.00 | 0.00 | 0.00 | 94 | 1029.4 |
| 20260509190250 | 48 | 153 | 1.0 | 2.0 | 0.00 | 0.00 | 0.00 | 94 | 1029.2 |
| 20260509185019 | 47 | 0.0 | 0.0 | 0.00 | 0.00 | 0.00 | 94 | 1029.1 | |
| 20260509183727 | 47 | 0.0 | 0.0 | 0.00 | 0.00 | 0.00 | 94 | 1028.9 | |
| 20260509182721 | 48 | 159 | 0.0 | 1.0 | 0.00 | 0.00 | 0.00 | 94 | 1028.9 |
| 20260509181346 | 48 | 160 | 0.0 | 1.0 | 0.00 | 0.00 | 0.00 | 94 | 1028.8 |
| 20260509180236 | 47 | 155 | 1.0 | 2.0 | 0.00 | 0.00 | 0.00 | 94 | 1028.8 |
| 20260509175007 | 47 | 0.0 | 0.0 | 0.00 | 0.00 | 0.00 | 94 | 1028.7 | |
| 20260509173754 | 47 | 0.0 | 0.0 | 0.00 | 0.00 | 0.00 | 94 | 1028.8 | |
| 20260509172627 | 48 | 0.0 | 0.0 | 0.00 | 0.00 | 0.00 | 93 | 1028.7 | |
| 20260509171438 | 48 | 159 | 1.0 | 1.0 | 0.00 | 0.00 | 0.00 | 93 | 1028.7 |
| 20260509170144 | 48 | 161 | 0.0 | 1.0 | 0.00 | 0.00 | 0.00 | 93 | 1028.7 |
| 20260509164954 | 48 | 160 | 1.0 | 1.0 | 0.00 | 0.00 | 0.00 | 93 | 1028.8 |
| 20260509163804 | 48 | 166 | 1.0 | 1.0 | 0.00 | 0.00 | 0.00 | 93 | 1028.7 |
| 20260509162614 | 48 | 166 | 1.0 | 1.0 | 0.00 | 0.00 | 0.00 | 93 | 1028.8 |
| 20260509161423 | 48 | 0.0 | 1.0 | 0.00 | 0.00 | 0.00 | 93 | 1028.8 | |
| 20260509160232 | 48 | 0.0 | 0.0 | 0.00 | 0.00 | 0.00 | 93 | 1028.9 | |
| 20260509154939 | 48 | 175 | 0.0 | 1.0 | 0.00 | 0.00 | 0.00 | 93 | 1029.0 |
| 20260509153748 | 48 | 158 | 1.0 | 2.0 | 0.00 | 0.00 | 0.00 | 93 | 1028.9 |
| 20260509152700 | 48 | 156 | 1.0 | 2.0 | 0.00 | 0.00 | 0.00 | 92 | 1028.9 |
| 20260509151407 | 48 | 0.0 | 0.0 | 0.00 | 0.00 | 0.00 | 92 | 1029.0 | |
| 20260509150217 | 48 | 157 | 1.0 | 1.0 | 0.00 | 0.00 | 0.00 | 92 | 1029.0 |
| 20260509145026 | 49 | 0.0 | 1.0 | 0.00 | 0.00 | 0.00 | 91 | 1029.1 | |
| 20260509143734 | 49 | 157 | 1.0 | 1.0 | 0.00 | 0.00 | 0.00 | 91 | 1029.0 |
| 20260509142543 | 49 | 157 | 0.0 | 1.0 | 0.00 | 0.00 | 0.00 | 91 | 1028.9 |
| 20260509141353 | 49 | 155 | 1.0 | 2.0 | 0.00 | 0.00 | 0.00 | 91 | 1029.1 |
| 20260509140203 | 49 | 153 | 1.0 | 1.0 | 0.00 | 0.00 | 0.00 | 91 | 1029.1 |
| 20260509135013 | 49 | 162 | 0.0 | 1.0 | 0.00 | 0.00 | 0.00 | 91 | 1029.1 |
| 20260509133718 | 49 | 162 | 1.0 | 1.0 | 0.00 | 0.00 | 0.00 | 91 | 1029.1 |
| 20260509132529 | 49 | 162 | 0.0 | 1.0 | 0.00 | 0.00 | 0.00 | 90 | 1029.3 |
| 20260509131522 | 49 | 162 | 1.0 | 1.0 | 0.00 | 0.00 | 0.00 | 90 | 1029.3 |
| 20260509130147 | 50 | 0.0 | 1.0 | 0.00 | 0.00 | 0.00 | 90 | 1029.2 | |
| 20260509124959 | 50 | 0.0 | 0.0 | 0.00 | 0.00 | 0.00 | 89 | 1029.4 | |
| 20260509123809 | 50 | 162 | 1.0 | 2.0 | 0.00 | 0.00 | 0.00 | 89 | 1029.3 |
| 20260509122516 | 50 | 162 | 1.0 | 1.0 | 0.00 | 0.00 | 0.00 | 89 | 1029.5 |
| 20260509121429 | 51 | 162 | 0.0 | 1.0 | 0.00 | 0.00 | 0.00 | 89 | 1029.6 |
| 20260509120240 | 51 | 0.0 | 1.0 | 0.00 | 0.00 | 0.00 | 89 | 1029.5 | |
| 20260509114944 | 51 | 161 | 1.0 | 1.0 | 0.00 | 0.00 | 0.00 | 89 | 1029.5 |
| 20260509113834 | 51 | 157 | 1.0 | 2.0 | 0.00 | 0.00 | 0.00 | 88 | 1029.4 |
| 20260509112644 | 51 | 162 | 1.0 | 1.0 | 0.00 | 0.00 | 0.00 | 88 | 1029.5 |
| 20260509111412 | 52 | 170 | 1.0 | 1.0 | 0.00 | 0.00 | 0.00 | 88 | 1029.5 |
| 20260509110221 | 51 | 178 | 0.0 | 1.0 | 0.00 | 0.00 | 0.00 | 88 | 1029.3 |
| 20260509105031 | 51 | 149 | 1.0 | 2.0 | 0.00 | 0.00 | 0.00 | 87 | 1029.3 |
| 20260509103738 | 52 | 164 | 1.0 | 1.0 | 0.00 | 0.00 | 0.00 | 87 | 1029.1 |
| 20260509102728 | 52 | 0.0 | 0.0 | 0.00 | 0.00 | 0.00 | 86 | 1029.2 | |
| 20260509101358 | 52 | 153 | 1.0 | 2.0 | 0.00 | 0.00 | 0.00 | 86 | 1029.0 |
| 20260509100208 | 53 | 147 | 1.0 | 2.0 | 0.00 | 0.00 | 0.00 | 86 | 1028.9 |
| 20260509095018 | 53 | 160 | 1.0 | 2.0 | 0.00 | 0.00 | 0.00 | 85 | 1028.9 |
| 20260509093725 | 53 | 170 | 1.0 | 2.0 | 0.00 | 0.00 | 0.00 | 85 | 1028.7 |
| 20260509092535 | 53 | 135 | 2.0 | 2.0 | 0.00 | 0.00 | 0.00 | 85 | 1028.7 |
| 20260509091449 | 54 | 164 | 1.0 | 1.0 | 0.00 | 0.00 | 0.00 | 84 | 1028.6 |
| 20260509090155 | 55 | 0.0 | 0.0 | 0.00 | 0.00 | 0.00 | 81 | 1028.5 | |
| 20260509085005 | 55 | 168 | 1.0 | 1.0 | 0.00 | 0.00 | 0.00 | 80 | 1028.3 |
| 20260509083816 | 56 | 131 | 2.0 | 2.0 | 0.00 | 0.00 | 0.00 | 78 | 1028.2 |
| 20260509082522 | 57 | 0.0 | 0.0 | 0.00 | 0.00 | 0.00 | 76 | 1028.0 | |
| 20260509081435 | 58 | 0.0 | 1.0 | 0.00 | 0.00 | 0.00 | 75 | 1027.8 | |
| 20260509080246 | 59 | 132 | 0.0 | 1.0 | 0.00 | 0.00 | 0.00 | 73 | 1027.7 |
| 20260509074953 | 60 | 172 | 1.0 | 3.0 | 0.00 | 0.00 | 0.00 | 71 | 1027.4 |
| 20260509073802 | 61 | 182 | 1.0 | 2.0 | 0.00 | 0.00 | 0.00 | 70 | 1027.3 |
| 20260509072528 | 62 | 136 | 2.0 | 4.0 | 0.00 | 0.00 | 0.00 | 68 | 1027.1 |
| 20260509071522 | 63 | 121 | 4.0 | 9.0 | 0.00 | 0.00 | 0.00 | 67 | 1027.0 |
| 20260509070227 | 63 | 110 | 5.0 | 8.0 | 0.00 | 0.00 | 0.00 | 66 | 1027.0 |
| 20260509064934 | 63 | 88 | 4.0 | 8.0 | 0.00 | 0.00 | 0.00 | 64 | 1026.6 |
| 20260509063824 | 64 | 99 | 4.0 | 7.0 | 0.00 | 0.00 | 0.00 | 62 | 1026.7 |
| 20260509062633 | 65 | 120 | 6.0 | 9.0 | 0.00 | 0.00 | 0.00 | 61 | 1026.7 |
| 20260509061403 | 65 | 71 | 6.0 | 11.0 | 0.00 | 0.00 | 0.00 | 60 | 1026.5 |
| 20260509060213 | 66 | 125 | 7.0 | 11.0 | 0.00 | 0.00 | 0.00 | 59 | 1026.3 |
| 20260509055023 | 66 | 106 | 7.0 | 14.0 | 0.00 | 0.00 | 0.00 | 58 | 1026.2 |
| 20260509053729 | 66 | 93 | 5.0 | 10.0 | 0.00 | 0.00 | 0.00 | 57 | 1026.0 |
| 20260509052539 | 66 | 82 | 5.0 | 11.0 | 0.00 | 0.00 | 0.00 | 56 | 1025.9 |
| 20260509051452 | 67 | 90 | 8.0 | 15.0 | 0.00 | 0.00 | 0.00 | 56 | 1025.9 |
| 20260509050239 | 68 | 115 | 5.0 | 10.0 | 0.00 | 0.00 | 0.00 | 55 | 1025.9 |
| 20260509045049 | 68 | 105 | 7.0 | 10.0 | 0.00 | 0.00 | 0.00 | 54 | 1025.7 |
| 20260509043819 | 70 | 124 | 5.0 | 7.0 | 0.00 | 0.00 | 0.00 | 51 | 1026.0 |
| 20260509042626 | 69 | 107 | 6.0 | 13.0 | 0.00 | 0.00 | 0.00 | 49 | 1025.7 |
| 20260509041440 | 70 | 123 | 5.0 | 9.0 | 0.00 | 0.00 | 0.00 | 49 | 1026.0 |
| 20260509040249 | 69 | 116 | 6.0 | 10.0 | 0.00 | 0.00 | 0.00 | 49 | 1025.8 |
| 20260509035036 | 69 | 99 | 3.0 | 8.0 | 0.00 | 0.00 | 0.00 | 49 | 1026.0 |
| 20260509033806 | 69 | 130 | 5.0 | 9.0 | 0.00 | 0.00 | 0.00 | 49 | 1025.9 |
| 20260509032513 | 69 | 161 | 4.0 | 10.0 | 0.00 | 0.00 | 0.00 | 49 | 1026.1 |
| 20260509031427 | 69 | 123 | 5.0 | 8.0 | 0.00 | 0.00 | 0.00 | 48 | 1026.3 |
| 20260509030237 | 69 | 99 | 4.0 | 8.0 | 0.00 | 0.00 | 0.00 | 48 | 1026.3 |
| 20260509024943 | 69 | 133 | 6.0 | 9.0 | 0.00 | 0.00 | 0.00 | 47 | 1026.4 |
| 20260509023752 | 69 | 122 | 5.0 | 9.0 | 0.00 | 0.00 | 0.00 | 46 | 1026.6 |
| 20260509022603 | 69 | 165 | 6.0 | 10.0 | 0.00 | 0.00 | 0.00 | 46 | 1026.9 |
| 20260509021413 | 68 | 156 | 4.0 | 9.0 | 0.00 | 0.00 | 0.00 | 49 | 1027.0 |
| 20260509020223 | 69 | 144 | 4.0 | 10.0 | 0.00 | 0.00 | 0.00 | 49 | 1027.1 |
| 20260509015033 | 68 | 135 | 5.0 | 8.0 | 0.00 | 0.00 | 0.00 | 49 | 1027.3 |
| 20260509013739 | 68 | 123 | 4.0 | 10.0 | 0.00 | 0.00 | 0.00 | 49 | 1027.4 |
| 20260509012549 | 67 | 111 | 5.0 | 9.0 | 0.00 | 0.00 | 0.00 | 49 | 1027.6 |
| 20260509011503 | 67 | 190 | 5.0 | 8.0 | 0.00 | 0.00 | 0.00 | 49 | 1027.5 |